Weather History for Boscobel, WI

Change the Weather History Date:

Monday, March 25, 2013

  Actual Average (KPDC) Record (KPDC)
Temperature  
Mean Temperature 31 °F -  
Max Temperature 36 °F 50 °F 80 °F (2007)
Min Temperature 26 °F 28 °F 9 °F (1952)
Degree Days  
Heating Degree Days 34    
Moisture  
Dew Point 21 °F    
Average Humidity 63    
Maximum Humidity 72    
Minimum Humidity 54    
Precipitation  
Precipitation 0.00 in - - ()
Sea Level Pressure  
Sea Level Pressure 30.03 in    
Wind  
Wind Speed 9 mph (NNW)    
Max Wind Speed 15 mph    
Max Gust Speed 22 mph    
Visibility 10 miles    
Events      
Averages and records for this station are not official NWS values.
T = Trace of Precipitation, MM = Missing Value Source: NWS Daily Summary

Daily Weather History Graph

Daily Weather History Graph

Search for Another Location

Airport:

Trip Planner

Search our weather history database for the weather conditions in past years. The results will help you decide how hot, cold, wet, or windy it might be!

Date:

Astronomy

Mar. 25, 2013 Rise Set
Actual Time 6:56 AM CDT 7:21 PM CDT
Civil Twilight 6:28 AM CDT 7:49 PM CDT
Nautical Twilight 5:54 AM CDT 8:23 PM CDT
Astronomical Twilight 5:20 AM CDT 8:58 PM CDT
Moon 5:51 PM CDT (3/25) 5:42 AM CDT (3/25)
Length of Visible Light 13h 21m
Length of Day
12h 24m
Waxing Gibbous, 96% of the Moon is Illuminated
Mar 25
Waxing Gibbous
Mar 27
Full
Apr 2
Last Quarter
Apr 10
New
Apr 18
First Quarter

Hourly Weather History & Observations

Time (CDT) Temp. Windchill Dew Point Humidity Pressure Visibility Wind Dir Wind Speed Gust Speed Precip Events Conditions
12:53 AM 33.1 °F 24.4 °F 23.0 °F 66% 29.90 in 10.0 mi North 11.5 mph 17.3 mph N/A   Overcast
1:53 AM 33.1 °F 24.9 °F 23.0 °F 66% 29.91 in 10.0 mi NNE 10.4 mph 16.1 mph N/A   Overcast
2:53 AM 32.0 °F 22.5 °F 21.9 °F 66% 29.91 in 10.0 mi NNE 12.7 mph 21.9 mph N/A   Overcast
3:53 AM 30.9 °F 23.5 °F 19.9 °F 64% 29.92 in 10.0 mi North 8.1 mph - N/A   Overcast
4:53 AM 28.9 °F 22.8 °F 18.0 °F 64% 29.93 in 10.0 mi North 5.8 mph - N/A   Clear
5:53 AM 28.0 °F 24.2 °F 17.1 °F 63% 29.95 in 10.0 mi North 3.5 mph - N/A   Scattered Clouds
6:53 AM 27.0 °F 18.7 °F 18.0 °F 69% 29.97 in 10.0 mi North 8.1 mph - N/A   Mostly Cloudy
7:09 AM 26.6 °F 18.2 °F 17.6 °F 69% 29.94 in 10.0 mi North 8.1 mph - N/A   Mostly Cloudy
7:53 AM 27.0 °F 21.6 °F 19.0 °F 72% 29.99 in 10.0 mi North 4.6 mph - N/A   Overcast
8:31 AM 28.4 °F 22.2 °F 19.4 °F 69% 29.97 in 10.0 mi North 5.8 mph - N/A   Scattered Clouds
8:53 AM 28.0 °F 20.8 °F 19.9 °F 72% 30.01 in 10.0 mi North 6.9 mph - N/A   Partly Cloudy
9:53 AM 30.9 °F 22.8 °F 21.0 °F 67% 30.02 in 10.0 mi North 9.2 mph - N/A   Scattered Clouds
10:02 AM 32.0 °F 25.6 °F 21.2 °F 64% 30.00 in 10.0 mi North 6.9 mph - N/A   Mostly Cloudy
10:53 AM 33.1 °F 25.5 °F 21.0 °F 61% 30.04 in 10.0 mi NNE 9.2 mph - N/A   Mostly Cloudy
11:35 AM 33.8 °F 25.3 °F 23.0 °F 65% 30.01 in 10.0 mi NNE 11.5 mph - N/A   Overcast
11:53 AM 34.0 °F 27.2 °F 21.9 °F 61% 30.04 in 10.0 mi North 8.1 mph - N/A   Overcast
12:53 PM 35.1 °F 28.6 °F 21.0 °F 57% 30.04 in 10.0 mi NNW 8.1 mph - N/A   Overcast
1:53 PM 36.0 °F 29.0 °F 21.9 °F 57% 30.04 in 10.0 mi NNW 9.2 mph - N/A   Overcast
2:53 PM 35.1 °F 26.9 °F 21.9 °F 59% 30.06 in 10.0 mi NW 11.5 mph - N/A   Overcast
3:53 PM 36.0 °F 28.5 °F 21.9 °F 57% 30.06 in 10.0 mi North 10.4 mph - N/A   Overcast
4:53 PM 36.0 °F 26.7 °F 23.0 °F 59% 30.09 in 10.0 mi NNW 15.0 mph 20.7 mph N/A   Overcast
5:53 PM 36.0 °F 31.1 °F 23.0 °F 59% 30.10 in 10.0 mi NNW 5.8 mph - N/A   Overcast
6:53 PM 36.0 °F 31.1 °F 23.0 °F 59% 30.12 in 10.0 mi NNW 5.8 mph - N/A   Overcast
7:53 PM 35.1 °F 29.3 °F 23.0 °F 61% 30.15 in 10.0 mi NW 6.9 mph - N/A   Overcast
8:53 PM 35.1 °F 30.1 °F 21.9 °F 59% 30.15 in 10.0 mi NW 5.8 mph - N/A   Overcast
9:53 PM 34.0 °F 31.0 °F 21.9 °F 61% 30.17 in 10.0 mi WNW 3.5 mph - N/A   Overcast
10:53 PM 35.1 °F 29.3 °F 19.9 °F 54% 30.17 in 10.0 mi NNW 6.9 mph - N/A   Overcast
11:53 PM 34.0 °F 29.8 °F 19.0 °F 54% 30.18 in 10.0 mi NW 4.6 mph - N/A   Mostly Cloudy